Location: Sungai Bunut
(2.6333°N, 113.7333°E)
Time: 18:38:49
(UTC+00:00)

SJ-6F - Pass Details

Date: 16 October 2021
Orbit: 570 x 593 km, 97.8° (Epoch: 08 December)

Event Time Altitude Azimuth Distance (km) Brightness Sun altitude
Rises 20:35:23 0° 12° (NNE) 2,815 8.0 -23.9°
Reaches altitude 10° 20:37:33 10° 12° (NNE) 1,915 7.1 -23.4°
Maximum altitude 20:41:42 88° 100° (E) 595 4.4 -22.3°
Drops below altitude 10° 20:45:52 10° 191° (S) 1,914 7.0 -21.3°
Sets 20:48:01 0° 191° (S) 2,813 7.9 -20.8°
